Glasgow, United Kingdom

4:40 PM BST on May 21, 2018 (GMT +0100)
Glasgow

Weather History for EGPF - September, 2014

Change the Weather History Date:

Saturday, September 27, 2014

  Actual Average Record
Temperature  
Mean Temperature 52 °F -  
Max Temperature 60 °F 54 °F 62 °F (2006)
Min Temperature 44 °F 42 °F 32 °F (2007)
Degree Days  
Heating Degree Days 13    
Growing Degree Days 2 (Base 50)    
Moisture  
Dew Point 49 °F    
Average Humidity 80    
Maximum Humidity 100    
Minimum Humidity 59    
Precipitation  
Precipitation 0.00 in - - ()
Sea Level Pressure  
Sea Level Pressure 30.17 in    
Wind  
Wind Speed 11 mph ()    
Max Wind Speed 18 mph    
Max Gust Speed -    
Visibility 6.1 miles    
Events Rain    
Averages and records for this station are not official NWS values.
T = Trace of Precipitation, MM = Missing Value Source: Averaged Metar Reports

Daily Weather History Graph

Daily Weather History Graph

Search for Another Location

Airport or City:

Astronomy

Sep. 27, 2014 Rise Set
Actual Time 7:12 AM BST 7:03 PM BST
Civil Twilight 6:35 AM BST 7:40 PM BST
Nautical Twilight 5:51 AM BST 8:24 PM BST
Astronomical Twilight 5:06 AM BST 9:09 PM BST
Moon 10:47 AM BST (9/27) 8:17 PM BST (9/27)
Length of Visible Light 13h 05m
Length of Day
11h 51m
Waxing Crescent, 10% of the Moon is Illuminated
Sep 27
Waxing Crescent
Oct 1
First Quarter
Oct 8
Full
Oct 15
Last Quarter
Oct 23
New

Hourly Weather History & Observations

Time (BST) Temp. Windchill Dew Point Humidity Pressure Visibility Wind Dir Wind Speed Gust Speed Precip Events Conditions
12:20 AM 55.4 °F - 48.2 °F 77% 30.21 in 6.2 mi SW 15.0 mph - N/A   Mostly Cloudy
12:50 AM 53.6 °F - 48.2 °F 82% 30.21 in 6.2 mi WSW 12.7 mph - N/A   Scattered Clouds
1:20 AM 53.6 °F - 48.2 °F 82% 30.18 in 6.2 mi WSW 13.8 mph - N/A   Partly Cloudy
1:50 AM 53.6 °F - 46.4 °F 77% 30.21 in - SW 8.1 mph - N/A   Clear
2:20 AM 51.8 °F - 46.4 °F 82% 30.21 in 6.2 mi SSW 6.9 mph - N/A   Partly Cloudy
2:50 AM 53.6 °F - 48.2 °F 82% 30.21 in - WSW 6.9 mph - N/A   Clear
3:20 AM 53.6 °F - 48.2 °F 82% 30.21 in - SW 10.4 mph - N/A   Clear
3:50 AM 51.8 °F - 48.2 °F 88% 30.18 in 6.2 mi SW 9.2 mph - N/A   Partly Cloudy
4:20 AM 50.0 °F - 46.4 °F 87% 30.18 in - SSW 6.9 mph - N/A   Clear
4:50 AM 48.2 °F - 46.4 °F 93% 30.18 in 6.2 mi SW 5.8 mph - N/A   Unknown
5:20 AM 44.6 °F 42.2 °F 42.8 °F 93% 30.18 in - West 4.6 mph - N/A   Clear
5:50 AM 44.6 °F 40.7 °F 42.8 °F 93% 30.18 in 6.2 mi WSW 6.9 mph - N/A   Partly Cloudy
6:20 AM 46.4 °F 43.5 °F 46.4 °F 100% 30.18 in 6.2 mi SW 5.8 mph - N/A   Mostly Cloudy
6:50 AM 48.2 °F - 46.4 °F 93% 30.21 in 6.2 mi SW 6.9 mph - N/A   Scattered Clouds
7:20 AM 48.2 °F - 46.4 °F 93% 30.21 in 6.2 mi SW 8.1 mph - N/A   Scattered Clouds
7:50 AM 50.0 °F - 46.4 °F 87% 30.21 in 6.2 mi SSW 8.1 mph - N/A   Partly Cloudy
8:20 AM 51.8 °F - 48.2 °F 88% 30.21 in - SSW 9.2 mph - N/A   Clear
8:50 AM 53.6 °F - 50.0 °F 88% 30.21 in - Variable 4.6 mph - N/A   Clear
9:20 AM 53.6 °F - 50.0 °F 88% 30.21 in 6.2 mi SSW 11.5 mph - N/A   Partly Cloudy
9:50 AM 55.4 °F - 50.0 °F 82% 30.21 in - SW 13.8 mph - N/A   Clear
10:20 AM 57.2 °F - 50.0 °F 77% 30.21 in - SW 13.8 mph - N/A   Clear
10:50 AM 59.0 °F - 50.0 °F 72% 30.18 in - SW 10.4 mph - N/A   Clear
11:20 AM 57.2 °F - 50.0 °F 77% 30.18 in - SSW 12.7 mph - N/A   Clear
11:50 AM 59.0 °F - 50.0 °F 72% 30.18 in 6.2 mi SW 15.0 mph - N/A   Partly Cloudy
12:20 PM 59.0 °F - 48.2 °F 67% 30.18 in 6.2 mi SW 15.0 mph - N/A   Scattered Clouds
12:50 PM 60.8 °F - 48.2 °F 63% 30.18 in 6.2 mi SW 16.1 mph - N/A   Partly Cloudy
1:20 PM 60.8 °F - 48.2 °F 63% 30.18 in 6.2 mi SW 13.8 mph - N/A   Partly Cloudy
1:50 PM 60.8 °F - 48.2 °F 63% 30.18 in 6.2 mi SW 12.7 mph - N/A   Scattered Clouds
2:20 PM 60.8 °F - 48.2 °F 63% 30.15 in 6.2 mi SW 15.0 mph - N/A   Scattered Clouds
2:50 PM 59.0 °F - 48.2 °F 67% 30.15 in 6.2 mi SW 17.3 mph - N/A   Scattered Clouds
3:20 PM 60.8 °F - 46.4 °F 59% 30.15 in 6.2 mi SW 13.8 mph - N/A   Partly Cloudy
3:50 PM 60.8 °F - 46.4 °F 59% 30.15 in 6.2 mi SW 16.1 mph - N/A   Partly Cloudy
4:20 PM 60.8 °F - 46.4 °F 59% 30.12 in 6.2 mi SW 17.3 mph - N/A   Scattered Clouds
4:50 PM 59.0 °F - 46.4 °F 63% 30.12 in 6.2 mi SW 18.4 mph - N/A   Scattered Clouds
5:20 PM 59.0 °F - 48.2 °F 67% 30.12 in 6.2 mi SW 17.3 mph - N/A   Scattered Clouds
5:50 PM 59.0 °F - 48.2 °F 67% 30.12 in - SW 15.0 mph - N/A   Clear
6:20 PM 59.0 °F - 48.2 °F 67% 30.12 in 6.2 mi SW 12.7 mph - N/A   Mostly Cloudy
6:50 PM 59.0 °F - 50.0 °F 72% 30.12 in 6.2 mi SW 13.8 mph - N/A   Mostly Cloudy
7:20 PM 57.2 °F - 50.0 °F 77% 30.12 in 6.2 mi SW 16.1 mph - N/A   Mostly Cloudy
7:50 PM 55.4 °F - 53.6 °F 94% 30.12 in 5.0 mi SSW 9.2 mph - N/A Rain Light Rain
8:20 PM 55.4 °F - 53.6 °F 94% 30.12 in 4.3 mi SW 10.4 mph - N/A Rain Light Rain
8:50 PM 55.4 °F - 53.6 °F 94% 30.15 in 5.0 mi SW 13.8 mph - N/A Rain Light Rain
9:20 PM 55.4 °F - 53.6 °F 94% 30.12 in 6.2 mi SW 15.0 mph - N/A   Mostly Cloudy
9:50 PM 57.2 °F - 53.6 °F 88% 30.12 in 6.2 mi SW 13.8 mph - N/A   Mostly Cloudy
10:20 PM 57.2 °F - 55.4 °F 94% 30.12 in - SW 12.7 mph - N/A   Clear
10:50 PM 57.2 °F - 55.4 °F 94% 30.12 in - SW 12.7 mph - N/A   Clear
11:20 PM 57.2 °F - 55.4 °F 94% 30.12 in 6.2 mi SW 13.8 mph - N/A   Partly Cloudy
11:50 PM 57.2 °F - 55.4 °F 94% 30.12 in 6.2 mi SW 12.7 mph - N/A   Mostly Cloudy